Погода в Бурмистрово

Россия / Новосибирская область     54°38′10″N   82°50′10″E
темп.,
°C
ветер,
м/с
пор.,
м/с
влажн.,
%
обл.,
%
осадки,
мм/ч
давл.,
гПа
погр.,
м
19 апреля, пн
пн1901:00+3юз71293100 1.6 1001430
04:00−2з12188371 3.8 1004789
07:00−6сз111575100 3.8 10111102
10:00−6сз101266100 0.0 10161216
13:00−4сз895175 0.0 10211410
16:00−3сз6746100 0.0 10231711
19:00−4ссз6752100 0.0 10241386
22:00−6ссз6763100 0.1 10261045
20 апреля, вт
вт2001:00−7ссз575521 0.1 1026848
04:00−7ссз56615 0.0 1027773
07:00−8сз566582 0.0 1028983
10:00−6сз5558100 0.0 10281178
13:00−3зсз454667 0.0 10271376
16:00−1зсз45405 0.0 10261566
19:00−1зсз56465 0.0 10261268
22:00−4зсз226415 0.0 102623
21 апреля, ср
ср2101:00−3юз476499 0.0 1025283
04:00−3юз5862100 0.0 1023438
07:00−2юз5859100 0.0 1022763
10:00−1ююз7851100 0.0 10221224
13:000ююз5755100 0.0 10211387
16:00−1ю4481100 0.1 1022556
19:00−1вюв4586100 0.4 1024530
22:00−1всв478897 0.2 1027320
22 апреля, чт
чт2201:00−2св478992 0.2 1029215
04:00−2ссв478741 0.0 1031164
07:00−3ссв59885 0.0 1034294
10:000ссв686727 0.0 10371079
13:00+1св685387 0.0 10381065
16:00+2св685598 0.0 1039893
19:00+2ссв586490 0.1 1041664
22:000ссв587970 0.1 1043172
23 апреля, пт
пт2301:00−1ссв48855 0.1 1043155
04:00−2ссв47895 0.0 1043146
07:00−2ссв59885 0.0 1044256
10:00+1св69705 0.0 1044643
13:00+3св685630 0.0 1042773
16:00+4св685497 0.0 1040852
19:00+4св7106467 0.0 1040628
22:00+2ссв7127649 0.0 1040252